一网星座-0342星 (ONEWEB-0342 )

导读

ONEWEB-0342是英国OneWeb公司低轨宽带卫星星座中的一员,于2021年9月14日发射入轨,属于OneWeb星座第一阶段组网卫星。该卫星重约147.5kg,运行于1200km近地轨道,配备Ku/Ka波段天线,采用氙气电推进,在轨寿命约5年,失效后会再入大气层销毁。它承担为全球偏远地区提供宽带互联网接入服务的任务,助力OneWeb实现全球卫星互联网覆盖的战略目标。

基本信息
目录编号:
49208
目录名称:
ONEWEB-0342
国际标识:
2021-083Y
轨道中心:
EARTH
卫星名称:
一网星座-0342星
卫星全名:
一网星座-0342星 (ONEWEB-0342 )
卫星状态:
在轨 (已飞行1827 天)
发射日期:
2021-09-14 UTC
国别 :
英国 (GB)
星等 :
--
该卫星已列入 空间交会检测服务 Space Conjunction Data Service (SCDS) ,当前飞行风险评估等级: 无高风险
轨道信息
数据来源 国际轨道数据 AOE轨道数据
星历时间 2026-09-15T18:12:59+0800
13小时前
查看轨道信息
2026-09-09T22:00:00+0800
6天前
查看轨道信息
半长轴 7559.915km 7559.907km
偏心率 0.0001923 0.000206
轨道倾角 87.913° 87.912°
近地点辐角 86.605° 85.551°
升交点赤经 256.435° 257.603°
平近点角 273.530° 231.486°
近地点 1180.324km 1180.212km
远地点 1183.232km 1183.328km
周期 109.027分钟 109.027分钟
每日圈数 13.207708 13.207729
详细信息
平衡模式:
三轴稳定
覆盖范围:
全球
运营商:
一网卫星公司
运营商所在国:
英国
制造商(研发单位):
一网卫星公司
制造商所在国:
英国
使用方式:
暂无
卫星简介
OneWeb卫星网络由648颗重约125公斤的微型卫星组成,运行在1200公里的轨道上。 每颗卫星都能够提供至少每秒8千兆位的吞吐量,以使用其高吞吐量的Ku频段有效载荷为家庭和移动平台提供互联网接入。该卫星仍在工作。
2D轨道图
3D轨道图
轨道高度分析图
轨道倾角分析图
轨道综合分析图
查看轨道综合分析图
交会数据列表
事件ID 空间交会对象 最接近时刻(TCA) 交会距离 交会风险概率(CRP) 交会风险指数(CRI) 操作
CDM_260917-091904-527404-920824
2026-09-17T
09:19:04+0000
1.628 km
极远距离
5.073769E-6 低风险 0.49
与全量物体交会距离演化趋势 订阅飞行安全评估服务
与全量物体交会风险概率演化趋势 订阅飞行安全评估服务